Weather History for Watford City, ND

Change the Weather History Date:

Saturday, October 5, 2013

  Actual Average (KISN) Record (KISN)
Temperature  
Mean Temperature 34 °F 48 °F  
Max Temperature 50 °F 62 °F 86 °F (1920)
Min Temperature 19 °F 34 °F 16 °F (2013)
Degree Days  
Heating Degree Days 30 17  
Month to date heating degree days 81  
Since 1 July heating degree days 427  
Cooling Degree Days 0 0  
Month to date cooling degree days 0  
Year to date cooling degree days 455  
Moisture  
Dew Point 25 °F    
Average Humidity 71    
Maximum Humidity 100    
Minimum Humidity 35    
Precipitation  
Precipitation 0.00 in 0.03 in 0.87 in (1937)
Month to date precipitation 0.17  
Year to date precipitation 12.35  
Sea Level Pressure  
Sea Level Pressure 30.15 in    
Wind  
Wind Speed 6 mph (NNW)    
Max Wind Speed 17 mph    
Max Gust Speed 21 mph    
Visibility 10 miles    
Events      
T = Trace of Precipitation, MM = Missing Value Source: NWS Daily Summary

Daily Weather History Graph

Daily Weather History Graph

Search for Another Location

Airport:

Trip Planner

Search our weather history database for the weather conditions in past years. The results will help you decide how hot, cold, wet, or windy it might be!

Date:

Astronomy

Oct. 05, 2013 Rise Set
Actual Time 7:58 AM CDT 7:23 PM CDT
Civil Twilight 7:27 AM CDT 7:54 PM CDT
Nautical Twilight 6:51 AM CDT 8:30 PM CDT
Astronomical Twilight 6:15 AM CDT 9:06 PM CDT
Moon 8:45 AM CDT (10/5) 7:36 PM CDT (10/5)
Length of Visible Light 12h 27m
Length of Day
11h 25m
New Moon, 1% of the Moon is Illuminated
Oct 5
New Moon
Oct 11
First Quarter
Oct 18
Full
Oct 26
Last Quarter
Nov 3
New

Hourly Weather History & Observations

Time (CDT) Temp. Windchill Dew Point Humidity Pressure Visibility Wind Dir Wind Speed Gust Speed Precip Events Conditions
12:15 AM 32.0 °F 27.5 °F 26.6 °F 80% 30.26 in 10.0 mi NNW 4.6 mph - N/A   Clear
12:35 AM 32.0 °F 27.5 °F 26.6 °F 80% 30.26 in 10.0 mi NNW 4.6 mph - N/A   Clear
12:55 AM 32.0 °F 26.4 °F 26.6 °F 80% 30.25 in 10.0 mi NNW 5.8 mph - N/A   Clear
1:15 AM 32.0 °F 25.6 °F 26.6 °F 80% 30.25 in 10.0 mi NW 6.9 mph - N/A   Clear
1:35 AM 28.4 °F - 24.8 °F 86% 30.24 in 10.0 mi Calm Calm - N/A   Clear
1:55 AM 28.4 °F 24.6 °F 24.8 °F 86% 30.24 in 10.0 mi North 3.5 mph - N/A   Clear
2:15 AM 26.6 °F 21.2 °F 24.8 °F 93% 30.23 in 10.0 mi NNW 4.6 mph - N/A   Clear
2:35 AM 26.6 °F 20.0 °F 24.8 °F 93% 30.23 in 10.0 mi North 5.8 mph - N/A   Clear
2:55 AM 26.6 °F 21.2 °F 24.8 °F 93% 30.23 in 10.0 mi North 4.6 mph - N/A   Clear
3:15 AM 26.6 °F 20.0 °F 24.8 °F 93% 30.22 in 10.0 mi NNW 5.8 mph - N/A   Clear
3:35 AM 28.4 °F 21.2 °F 26.6 °F 93% 30.21 in 10.0 mi NNW 6.9 mph - N/A   Clear
3:55 AM 26.6 °F 20.0 °F 24.8 °F 93% 30.21 in 10.0 mi NNW 5.8 mph - N/A   Clear
4:15 AM 26.6 °F 21.2 °F 24.8 °F 93% 30.21 in 10.0 mi NNW 4.6 mph - N/A   Clear
4:35 AM 26.6 °F 21.2 °F 24.8 °F 93% 30.21 in 10.0 mi NW 4.6 mph - N/A   Clear
4:55 AM 26.6 °F - 24.8 °F 93% 30.21 in 10.0 mi Calm Calm - N/A   Clear
5:15 AM 26.6 °F - 24.8 °F 93% 30.22 in 10.0 mi Calm Calm - N/A   Clear
5:35 AM 24.8 °F - 23.0 °F 93% 30.22 in 10.0 mi Calm Calm - N/A   Clear
5:55 AM 24.8 °F 17.9 °F 21.2 °F 86% 30.22 in 10.0 mi NW 5.8 mph - N/A   Clear
6:15 AM 23.0 °F 14.7 °F 23.0 °F 100% 30.23 in 10.0 mi NNW 6.9 mph - N/A   Clear
6:35 AM 24.8 °F 19.1 °F 23.0 °F 93% 30.22 in 10.0 mi NNW 4.6 mph - N/A   Clear
6:55 AM 21.2 °F - 19.4 °F 93% 30.21 in 10.0 mi Calm Calm - N/A   Clear
7:15 AM 21.2 °F - 19.4 °F 93% 30.21 in 10.0 mi Calm Calm - N/A   Clear
7:35 AM 19.4 °F 14.3 °F 17.6 °F 93% 30.21 in 10.0 mi SW 3.5 mph - N/A   Clear
7:55 AM 21.2 °F 16.4 °F 19.4 °F 93% 30.21 in 10.0 mi WNW 3.5 mph - N/A   Clear
8:15 AM 21.2 °F - 19.4 °F 93% 30.20 in 10.0 mi Calm Calm - N/A   Clear
8:35 AM 23.0 °F 15.8 °F 21.2 °F 93% 30.20 in 10.0 mi NW 5.8 mph - N/A   Clear
8:55 AM 26.6 °F 22.6 °F 24.8 °F 93% 30.20 in 10.0 mi West 3.5 mph - N/A   Clear
9:15 AM 28.4 °F 19.7 °F 24.8 °F 86% 30.20 in 10.0 mi NW 9.2 mph - N/A   Clear
9:35 AM 30.2 °F 21.9 °F 26.6 °F 86% 30.20 in 10.0 mi NW 9.2 mph - N/A   Clear
9:55 AM 32.0 °F 23.0 °F 26.6 °F 80% 30.19 in 10.0 mi NW 11.5 mph - N/A   Clear
10:15 AM 32.0 °F 24.8 °F 26.6 °F 80% 30.18 in 10.0 mi NNW 8.1 mph - N/A   Clear
10:35 AM 33.8 °F 25.8 °F 28.4 °F 81% 30.18 in 10.0 mi NW 10.4 mph 20.7 mph N/A   Clear
10:55 AM 37.4 °F 28.5 °F 26.6 °F 65% 30.19 in 10.0 mi NNW 15.0 mph - N/A   Clear
11:15 AM 37.4 °F 28.5 °F 26.6 °F 65% 30.18 in 10.0 mi North 15.0 mph 20.7 mph N/A   Clear
11:35 AM 39.2 °F 32.5 °F 26.6 °F 61% 30.18 in 10.0 mi North 10.4 mph - N/A   Clear
11:55 AM 41.0 °F 33.9 °F 26.6 °F 57% 30.18 in 10.0 mi North 12.7 mph 17.3 mph N/A   Clear
12:15 PM 41.0 °F 34.3 °F 24.8 °F 53% 30.18 in 10.0 mi North 11.5 mph 18.4 mph N/A   Clear
12:35 PM 42.8 °F 36.2 °F 24.8 °F 49% 30.17 in 10.0 mi NNW 12.7 mph 18.4 mph N/A   Clear
12:55 PM 44.6 °F 39.2 °F 24.8 °F 46% 30.17 in 10.0 mi North 10.4 mph 18.4 mph N/A   Clear
1:15 PM 44.6 °F 39.7 °F 24.8 °F 46% 30.16 in 10.0 mi North 9.2 mph - N/A   Clear
1:35 PM 46.4 °F 40.1 °F 24.8 °F 43% 30.14 in 10.0 mi North 15.0 mph - N/A   Clear
1:55 PM 46.4 °F 40.1 °F 24.8 °F 43% 30.13 in 10.0 mi NNW 15.0 mph - N/A   Clear
2:15 PM 46.4 °F 41.1 °F 23.0 °F 40% 30.12 in 10.0 mi North 11.5 mph - N/A   Clear
2:35 PM 48.2 °F - 23.0 °F 37% 30.11 in 10.0 mi North 8.1 mph 16.1 mph N/A   Clear
2:55 PM 48.2 °F - 24.8 °F 40% 30.10 in 10.0 mi NNW 15.0 mph 18.4 mph N/A   Clear
3:15 PM 48.2 °F - 24.8 °F 40% 30.09 in 10.0 mi NW 11.5 mph - N/A   Clear
3:35 PM 48.2 °F - 24.8 °F 40% 30.09 in 10.0 mi NNW 11.5 mph - N/A   Clear
3:55 PM 50.0 °F - 24.8 °F 37% 30.09 in 10.0 mi NNW 17.3 mph - N/A   Clear
4:15 PM 50.0 °F - 24.8 °F 37% 30.08 in 10.0 mi NNW 13.8 mph 18.4 mph N/A   Clear
4:35 PM 50.0 °F - 23.0 °F 35% 30.07 in 10.0 mi NNW 13.8 mph - N/A   Clear
4:55 PM 48.2 °F - 24.8 °F 40% 30.07 in 10.0 mi NW 13.8 mph - N/A   Clear
5:15 PM 50.0 °F - 23.0 °F 35% 30.07 in 10.0 mi NW 9.2 mph 17.3 mph N/A   Clear
5:35 PM 48.2 °F - 23.0 °F 37% 30.08 in 10.0 mi NNW 10.4 mph - N/A   Clear
5:55 PM 50.0 °F - 24.8 °F 37% 30.07 in 10.0 mi NNW 11.5 mph - N/A   Clear
6:15 PM 48.2 °F - 24.8 °F 40% 30.07 in 10.0 mi NNW 10.4 mph - N/A   Clear
6:35 PM 48.2 °F - 26.6 °F 43% 30.08 in 10.0 mi NNW 10.4 mph - N/A   Clear
6:55 PM 46.4 °F 44.3 °F 26.6 °F 46% 30.06 in 10.0 mi NNW 4.6 mph - N/A   Clear
7:15 PM 44.6 °F 43.1 °F 26.6 °F 49% 30.07 in 10.0 mi NNW 3.5 mph - N/A   Clear
7:35 PM 41.0 °F 39.0 °F 26.6 °F 57% 30.06 in 10.0 mi NW 3.5 mph - N/A   Clear
7:55 PM 37.4 °F 33.8 °F 26.6 °F 65% 30.06 in 10.0 mi North 4.6 mph - N/A   Clear
8:15 PM 35.6 °F 31.7 °F 26.6 °F 70% 30.07 in 10.0 mi North 4.6 mph - N/A   Clear
8:35 PM 35.6 °F 32.8 °F 26.6 °F 70% 30.06 in 10.0 mi SSW 3.5 mph - N/A   Clear
8:55 PM 33.8 °F - 24.8 °F 70% 30.06 in 10.0 mi Calm Calm - N/A   Clear
9:15 PM 32.0 °F 28.7 °F 24.8 °F 75% 30.06 in 10.0 mi South 3.5 mph - N/A   Clear
9:35 PM 32.0 °F 28.7 °F 24.8 °F 75% 30.06 in 10.0 mi SSW 3.5 mph - N/A   Clear
9:55 PM 32.0 °F - 24.8 °F 75% 30.05 in 10.0 mi Calm Calm - N/A   Clear
10:15 PM 32.0 °F - 26.6 °F 80% 30.05 in 10.0 mi Calm Calm - N/A   Clear
10:35 PM 30.2 °F 26.7 °F 26.6 °F 86% 30.05 in 10.0 mi WSW 3.5 mph - N/A   Clear
10:55 PM 28.4 °F 24.6 °F 24.8 °F 86% 30.05 in 10.0 mi WSW 3.5 mph - N/A   Clear
11:15 PM 28.4 °F - 24.8 °F 86% 30.04 in 10.0 mi Calm Calm - N/A   Clear
11:35 PM 26.6 °F - 23.0 °F 86% 30.03 in 10.0 mi Calm Calm - N/A   Clear
11:55 PM 26.6 °F - 24.8 °F 93% 30.03 in 10.0 mi Calm Calm - N/A   Clear